Location: Newark
(35.6799°N, 139.7636°E)
Time: 19:32:46
(UTC+00:00)

Courier 1B Rocket - Pass Details

Date: 13 December 2019
Orbit: 920 x 1202 km, 28.2° (Epoch: 28 January)

Event Time Altitude Azimuth Distance (km) Brightness Sun altitude
Rises 21:09:04 0° 254° (WSW) 3,900 7.7 -6.9°
Reaches altitude 10° 21:12:01 10° 249° (WSW) 2,898 7.1 -6.3°
Maximum altitude 21:18:41 45° 178° (S) 1,348 6.0 -5.1°
Drops below altitude 10° 21:24:53 10° 108° (ESE) 2,709 9.2 -3.9°
Sets 21:27:33 0° 102° (ESE) 3,623 10.0 -3.5°
